{"data":{"norad_id":64932,"intl_designator":"2025-158A","name":"STARLINK-34705","alt_names":[],"object_type":"PAYLOAD","status":"ACTIVE","operator":null,"country":"US","launch_date":"2025-07-27","launch_site_code":"AFWTR","launch_vehicle":null,"mission":null,"orbit_class":"UNKNOWN","rcs_meters":null,"size_class":null,"mass_kg":null,"dimensions":null,"purposes":["comms"],"wikipedia_slug":null,"has_3d_model":false,"image_url":null,"decayed_at":null,"tle_current":{"epoch":"2026-05-25T02:57:10.630944Z","epoch_age_seconds":64382,"freshness":"FRESH","line1":"1 64932U 25158A   26145.12303971  .00003556  00000+0  25027-3 0  9996","line2":"2 64932  97.4502   8.9913 0003594 178.3139 181.8101 15.05668728 46857","mean_motion":15.05668728,"eccentricity":0.0003594,"inclination_deg":97.4502,"raan_deg":8.9913,"arg_perigee_deg":178.3139,"mean_anomaly_deg":181.8101,"bstar":0.00025027,"rev_number":4685,"period_min":95.638567317047,"perigee_km":546.9639322507,"apogee_km":551.94348445186,"semimajor_km":6927.5907083513,"source":"CELESTRAK","updated_at":"2026-05-25T13:38:20.627990Z"}}}